Location: ???? ?????????
(31.1304°N, 31.7111°E)
Time: 12:43:14
(UTC+00:00)

Tiros 1 - All Passes

Search period start: 07 March 2021 00:00
Search period end: 17 March 2021 00:00
Orbit: 630 x 664 km, 48.4° (Epoch: 07 March)

Date Brightness Start Highest point End Pass type
(mag) Time Alt. Az. Time Alt. Az. Time Alt. Az.
07 Mar - 00:25:07 10° W 00:28:57 24° NNW 00:32:50 10° NNE visible
07 Mar - 02:12:09 10° NNW 02:12:37 10° N 02:13:05 10° N visible
07 Mar - 03:54:47 10° N 03:56:42 12° NNE 03:58:36 10° NE daylight
07 Mar - 05:35:37 10° NNW 05:40:03 35° NNE 05:44:26 10° E daylight
07 Mar - 07:17:50 10° WNW 07:22:14 37° SW 07:26:36 10° SSE daylight
07 Mar - 21:26:45 10° S 21:30:29 23° SE 21:34:16 10° ENE night (unlit)
07 Mar - 23:07:49 10° WSW 23:12:26 50° NW 23:17:06 10° NE night (unlit)
08 Mar - 00:52:55 10° NW 00:55:32 14° NNW 00:58:10 10° NNE visible
08 Mar - 04:20:01 10° NNW 04:23:22 18° NNE 04:26:43 10° ENE daylight
08 Mar - 06:01:21 10° NW 06:06:10 79° NE 06:10:56 10° SE daylight
08 Mar - 07:45:25 10° W 07:47:52 14° SW 07:50:19 10° SSW daylight
08 Mar - 21:51:35 10° SW 21:56:14 61° SE 22:00:57 10° NE night (unlit)
08 Mar - 23:34:46 10° W 23:38:43 25° NNW 23:42:41 10° NNE night (unlit)
09 Mar - 01:21:32 10° NNW 01:22:19 10° N 01:23:06 10° N visible
09 Mar - 03:04:41 10° N 03:06:24 12° NNE 03:08:07 10° NE visible
09 Mar - 04:45:27 10° NNW 04:49:48 33° NNE 04:54:07 10° E daylight
09 Mar - 06:27:33 10° WNW 06:32:03 41° SW 06:36:31 10° SSE daylight
09 Mar - 20:36:48 10° S 20:40:20 21° SE 20:43:53 10° E night (unlit)
09 Mar - 22:17:34 10° WSW 22:22:13 55° NW 22:26:55 10° NE night (unlit)
10 Mar - 00:02:29 10° NW 00:05:15 15° NNW 00:08:01 10° NNE night (unlit)
10 Mar - 03:29:52 10° NNW 03:33:06 17° NNE 03:36:19 10° ENE visible
10 Mar - 05:11:09 10° NW 05:15:58 72° NE 05:20:43 10° SE daylight
10 Mar - 06:54:52 10° W 06:57:43 16° SW 07:00:33 10° SSW daylight
10 Mar - 21:01:27 10° SSW 21:06:02 55° SE 21:10:43 10° ENE night (unlit)
10 Mar - 22:44:26 10° W 22:48:27 27° NNW 22:52:31 10° NNE night (unlit)
11 Mar - 00:31:00 10° NNW 00:32:01 11° N 00:33:03 10° N visible
11 Mar - 02:14:36 10° N 02:16:06 11° NNE 02:17:37 10° NNE visible
11 Mar - 03:55:17 10° NNW 03:59:34 31° NNE 04:03:49 10° E daylight
11 Mar - 05:37:16 10° WNW 05:41:52 45° SW 05:46:25 10° SSE daylight
11 Mar - 19:46:53 10° S 19:50:10 19° SE 19:53:29 10° E night (unlit)
11 Mar - 21:27:20 10° WSW 21:32:00 60° NW 21:36:43 10° NE night (unlit)
11 Mar - 23:12:05 10° WNW 23:14:59 16° NNW 23:17:53 10° NNE night (unlit)
12 Mar - 02:39:44 10° NNW 02:42:50 17° NNE 02:45:54 10° ENE visible
12 Mar - 04:20:57 10° NW 04:25:45 66° NE 04:30:30 10° ESE daylight
12 Mar - 06:04:23 10° W 06:07:33 18° SW 06:10:42 10° S daylight
12 Mar - 20:11:21 10° SSW 20:15:52 49° SE 20:20:27 10° ENE night (unlit)
12 Mar - 21:54:07 10° W 21:58:13 28° NNW 22:02:21 10° NNE night (unlit)
12 Mar - 23:40:29 10° NNW 23:41:43 11° N 23:42:58 10° N night (unlit)
13 Mar - 01:24:32 10° N 01:25:49 11° N 01:27:05 10° NNE visible
13 Mar - 03:05:08 10° NNW 03:09:19 28° NNE 03:13:28 10° E visible
13 Mar - 04:47:01 10° WNW 04:51:40 50° SW 04:56:18 10° SSE daylight
13 Mar - 18:57:01 10° SSE 19:00:00 17° SE 19:03:01 10° E night (unlit)
13 Mar - 20:37:07 10° WSW 20:41:47 66° NW 20:46:32 10° NE night (unlit)
13 Mar - 22:21:40 10° WNW 22:24:41 16° NNW 22:27:45 10° NNE night (unlit)
14 Mar - 01:49:37 10° NNW 01:52:33 16° NNE 01:55:29 10° ENE visible
14 Mar - 03:30:46 10° NW 03:35:31 60° NE 03:40:16 10° ESE visible
14 Mar - 05:13:57 10° W 05:17:23 20° SW 05:20:48 10° S daylight
14 Mar - 19:21:15 10° SSW 19:25:41 44° SE 19:30:11 10° ENE night (unlit)
14 Mar - 21:03:49 10° W 21:07:58 30° NNW 21:12:11 10° NNE night (unlit)
14 Mar - 22:50:00 10° NNW 22:51:26 11° NNW 22:52:51 10° N night (unlit)
15 Mar - 00:34:30 10° N 00:35:30 11° N 00:36:31 10° NNE visible
15 Mar - 02:14:58 10° NNW 02:19:03 27° NNE 02:23:07 10° E visible
15 Mar - 03:56:46 10° WNW 04:01:29 56° SW 04:06:10 10° SSE daylight
15 Mar - 18:07:12 10° SSE 18:09:52 15° SE 18:12:32 10° E night (unlit)
15 Mar - 19:46:54 10° SW 19:51:35 72° NW 19:56:20 10° NE night (unlit)
15 Mar - 21:31:17 10° WNW 21:34:26 17° NNW 21:37:36 10° NNE night (unlit)
16 Mar - 00:59:30 10° NNW 01:02:16 15° NNE 01:05:03 10° NE visible
16 Mar - 02:40:35 10° NW 02:45:18 54° NE 02:50:01 10° ESE visible
16 Mar - 04:23:33 10° W 04:27:13 22° SW 04:30:51 10° S daylight
16 Mar - 18:31:10 10° SSW 18:35:31 40° SE 18:39:55 10° ENE night (unlit)
16 Mar - 20:13:30 10° W 20:17:44 32° NNW 20:22:01 10° NNE night (unlit)
16 Mar - 21:59:32 10° NNW 22:01:07 11° NNW 22:02:44 10° N night (unlit)
16 Mar - 23:44:31 10° N 23:45:12 10° N 23:45:52 10° NNE night (unlit)
